Hourly Data Report for July 12, 2021

TORONTO CITY
ONTARIO
Current Station Operator: ECCC - MSC

43°40'00.000" N
79°24'00.000" W
112.50 m
6158355
71508
XTO

Download Data

Hourly Data (July 2021)
Hourly Data Report for July 12, 2021
TIME
LST
Temp Definition
°C
Dew Point Definition
°C
Rel Hum Definition
%
Precip. Amount Definition
mm

Wind Dir Definition
10's deg

Wind Spd Definition
km/h
Visibility Definition
km
Stn Press Definition
kPa
Hmdx Definition


Wind Chill Definition


Weather Definition


00:00 20.2 18.0 87 0.0       100.41 26   LegendNANA
01:00 20.0 17.9 88 0.0       100.42 26   LegendNANA
02:00 20.0 17.9 88 0.0       100.44 26   LegendNANA
03:00 19.9 17.3 85 0.0       100.44     LegendNANA
04:00 19.8 17.3 85 0.0       100.48     LegendNANA
05:00 19.7 17.2 85 0.0       100.55     LegendNANA
06:00 19.9 17.2 84 0.0       100.55     LegendNANA
07:00 20.1 17.0 82 0.0       100.58 25   LegendNANA
08:00 20.7 17.2 80 0.0       100.64 26   LegendNANA
09:00 21.3 16.7 75 0.0       100.66 26   LegendNANA
10:00 22.8 15.9 65 0.0       100.67 27   LegendNANA
11:00 23.9 15.9 61 0.0       100.70 28   LegendNANA
12:00 23.0 15.5 62 0.0       100.74 27   LegendNANA
13:00 22.7 16.7 69 0.0       100.75 28   LegendNANA
14:00 22.2 16.7 71 0.0       100.71 27   LegendNANA
15:00 23.3 17.0 68 0.0       100.68 29   LegendNANA
16:00 23.4 17.1 68 0.0       100.65 29   LegendNANA
17:00 23.5 17.3 69 0.0       100.61 29   LegendNANA
18:00 22.8 17.0 70 0.0       100.62 28   LegendNANA
19:00 21.5 17.4 77 0.0       100.64 27   LegendNANA
20:00 21.2 17.5 79 0.0       100.61 27   LegendNANA
21:00 21.0 17.7 81 0.0       100.61 27   LegendNANA
22:00 21.0 17.7 81 0.0       100.63 27   LegendNANA
23:00 20.7 18.0 85 0.0       100.62 27   LegendNANA

Notes on Data Quality.

Legend

  • E = Estimated
  • M = Missing
  • NA = Not Available*
  • [empty] = Indicates an unobserved value
Date modified: